Home   Weather   Waterbury   Past weeks

Flag for USA Past Weather in Waterbury, Connecticut, USA — Yesterday and Last 2 Weeks

Now
70 °F

Clear.


Feels Like: 70 °F
Forecast: 67 / 88 °F
Wind: No wind

Location: Oxford

Current Time: Jul 21, 2017 at 2:51:12 am

Latest Report: Jul 21, 2017 at 2:35 am


Visibility: 10 mi

Pressure: 29.90 "Hg

Humidity: 78%

Dew Point: 63 °F

Location of WaterburyLocation

Past Weather in Waterbury — Graph

°F

Waterbury Temperature Yesterday

Maximum temperature yesterday: 90 °F (at 1:50 pm)
Minimum temperature yesterday: 64 °F (at 3:55 am)
Average temperature yesterday: 74 °F

High & Low Weather Summary for the Past Weeks

 TemperatureHumidityPressure
High90 °F (Jul 20, 1:50 pm)100% (Jul 19, 10:50 am)30.21 "Hg (Jul 19, 10:50 am)
Low57 °F (Jul 9, 4:55 am)36% (Jul 9, 5:50 pm)29.74 "Hg (Jul 7, 5:50 pm)
Average70 °F75%30.00 "Hg
* Reported Jul 6 1:15 am — Jul 21 1:35 am, Waterbury. Weather by CustomWeather, © 2017

Note: Actual official high and low records may vary slightly from our data, if they occured in-between our weather recording intervals... More about our weather records

Advertising

Waterbury Weather History for the Previous 24 Hours

Scroll right to see more
 ConditionsComfort  
Time TempWeatherWind HumidityBarometerVisibility
1:35 am
Fri, Jul 21
72 °FClear.No wind73%29.90 "Hg10 mi
1:15 am72 °FClear.No wind73%29.90 "Hg10 mi
12:55 am72 °FClear.3 mph73%29.91 "Hg10 mi
12:35 am72 °FClear.3 mph73%29.90 "Hg10 mi
12:15 am72 °FClear.5 mph73%29.91 "Hg10 mi
11:55 pm
Thu, Jul 20
73 °FClear.3 mph69%29.90 "Hg10 mi
11:35 pm73 °FClear.5 mph69%29.89 "Hg10 mi
11:15 pm73 °FClear.6 mph69%29.89 "Hg10 mi
10:55 pm73 °FClear.5 mph69%29.88 "Hg10 mi
10:35 pm75 °FClear.No wind65%29.89 "Hg10 mi
10:15 pm75 °FClear.No wind65%29.89 "Hg10 mi
9:55 pm75 °FClear.6 mph65%29.88 "Hg10 mi
9:35 pm77 °FClear.No wind61%29.88 "Hg10 mi
8:50 pm79 °FPassing clouds.5 mph65%29.85 "Hg10 mi
7:50 pm82 °FPartly sunny.6 mph58%29.88 "Hg10 mi
7:20 pm82 °FPartly sunny.12 mph58%29.85 "Hg10 mi
6:50 pm84 °FPartly sunny.5 mph58%29.91 "Hg10 mi
5:50 pm86 °FBroken clouds.5 mph52%29.91 "Hg10 mi
4:50 pm88 °FScattered clouds.7 mph49%29.91 "Hg10 mi
3:50 pm90 °FScattered clouds.6 mph46%29.92 "Hg10 mi
2:50 pm88 °FScattered clouds.5 mph49%29.93 "Hg10 mi
1:50 pm90 °FScattered clouds.5 mph46%29.95 "Hg10 mi
12:50 pm88 °FScattered clouds.8 mph49%29.97 "Hg10 mi
11:50 am86 °FScattered clouds.6 mph55%30.00 "Hg10 mi
10:50 am82 °FPartly sunny.5 mph55%30.01 "Hg10 mi
9:50 am81 °FPartly sunny.No wind58%30.02 "Hg10 mi
8:50 am79 °FPartly sunny.No wind61%30.02 "Hg10 mi
7:50 am73 °FPartly sunny.No wind74%30.03 "Hg10 mi
6:50 am68 °FPartly sunny.No wind83%30.01 "Hg10 mi
5:55 am64 °FSunny.No wind83%29.99 "Hg10 mi
5:35 am64 °FSunny.No wind83%29.99 "Hg10 mi
5:15 am64 °FClear.No wind78%29.99 "Hg10 mi
4:55 am64 °FClear.No wind83%29.99 "Hg10 mi
4:35 am64 °FClear.No wind83%29.99 "Hg10 mi
4:15 am64 °FClear.No wind83%29.99 "Hg10 mi
3:55 am64 °FClear.No wind83%29.98 "Hg10 mi
3:35 am66 °FClear.No wind83%30.00 "Hg10 mi
2:55 am66 °FClear.No wind83%30.00 "Hg10 mi
2:35 am66 °FClear.No wind83%30.00 "Hg10 mi
Weather by CustomWeather, © 2017

See weather overviewHow to use our weather pages